Overview Statistics Trail Chart Weather Telemetry Raw packets
 

This is the latest recevied weather packets stored in our database for station/object NK7E-2. If no packets are shown the sender has not sent any weather packets the latest 10 day(s).

<< 46 47 48 49 50 51 52 >>
Time Temp. Humidity Pressure Rain* Wind** Luminosity Snow
1787751317 27.78° C 32% 1028.1 hPa 0 mm - - -
1787750717 27.78° C 32% 1028.1 hPa 0 mm - - -
1787750117 27.78° C 32% 1027.9 hPa 0 mm - - -
1787749517 27.78° C 31% 1027.8 hPa 0 mm - - -
1787748916 27.78° C 31% 1027.8 hPa 0 mm - - -
1787748317 28.33° C 31% 1027.9 hPa 0 mm - - -
1787747717 28.33° C 30% 1028.2 hPa 0 mm - - -
1787747116 28.33° C 30% 1028.2 hPa 0 mm - - -
1787746516 29.44° C 29% 1028.3 hPa 0 mm - - -
1787745916 29.44° C 28% 1028.2 hPa 0 mm - - -
1787745316 29.44° C 28% 1028.2 hPa 0 mm - - -
1787744716 28.89° C 29% 1028.1 hPa 0 mm - - -
1787744116 28.89° C 29% 1028 hPa 0 mm - - -
1787743516 29.44° C 28% 1028.2 hPa 0 mm - - -
1787742916 29.44° C 28% 1028.2 hPa 0 mm - - -
1787742316 29.44° C 28% 1028 hPa 0 mm - - -
1787741716 29.44° C 28% 1028 hPa 0 mm - - -
1787741116 30° C 28% 1028 hPa 0 mm - - -
1787740516 30° C 28% 1028 hPa 0 mm - - -
1787739916 30° C 27% 1028.2 hPa 0 mm - - -
1787739316 30° C 28% 1028.3 hPa 0 mm - - -
1787738716 30° C 28% 1028.2 hPa 0 mm - - -
1787738116 30° C 27% 1028.2 hPa 0 mm - - -
1787737516 30° C 27% 1028.2 hPa 0 mm - - -
1787736916 30° C 27% 1028.2 hPa 0 mm - - -

* Rain latest hour (hover to see other rain measurements)
** Current wind speed in m/s (hover to see current wind gust speed)